TimeEST,TemperatureF,Dew PointF,Humidity,Sea Level PressureIn,VisibilityMPH,Wind Direction,Wind SpeedMPH,Gust SpeedMPH,PrecipitationIn,Events,Conditions,WindDirDegrees,DateUTC
12:15 AM,41.2,35.6,81,29.87,10.0,NNW,19.6,26.5,N/A,,Overcast,340,2013-03-07 05:15:00
12:35 AM,41.0,34.9,79,29.88,10.0,NNW,17.3,27.6,N/A,,Overcast,340,2013-03-07 05:35:00
12:55 AM,40.6,34.7,79,29.89,10.0,North,18.4,27.6,N/A,,Overcast,350,2013-03-07 05:55:00
1:15 AM,40.5,34.2,78,29.90,10.0,North,21.9,28.8,N/A,,Mostly Cloudy,350,2013-03-07 06:15:00
1:35 AM,40.8,33.8,76,29.91,10.0,NNW,18.4,27.6,N/A,,Mostly Cloudy,340,2013-03-07 06:35:00
1:55 AM,41.0,33.4,74,29.91,10.0,NNW,15.0,25.3,N/A,,Overcast,340,2013-03-07 06:55:00
2:15 AM,41.0,33.1,73,29.91,10.0,NNW,16.1,23.0,N/A,,Overcast,340,2013-03-07 07:15:00
2:35 AM,41.0,32.7,72,29.91,10.0,NNW,16.1,24.2,N/A,,Overcast,340,2013-03-07 07:35:00
2:55 AM,40.5,32.2,72,29.91,10.0,North,18.4,26.5,N/A,,Scattered Clouds,350,2013-03-07 07:55:00
3:15 AM,40.6,32.0,71,29.92,10.0,NNW,12.7,24.2,N/A,,Scattered Clouds,340,2013-03-07 08:15:00
3:35 AM,40.8,32.0,71,29.94,10.0,NNW,13.8,23.0,N/A,,Mostly Cloudy,340,2013-03-07 08:35:00
3:55 AM,41.0,32.0,70,29.96,10.0,NNW,13.8,-,N/A,,Mostly Cloudy,340,2013-03-07 08:55:00
4:15 AM,41.0,31.8,70,29.97,10.0,NNW,13.8,19.6,N/A,,Overcast,330,2013-03-07 09:15:00
4:35 AM,40.3,32.4,73,29.98,10.0,NW,9.2,-,N/A,,Overcast,320,2013-03-07 09:35:00
4:55 AM,39.4,32.0,75,29.98,10.0,NNW,10.4,-,N/A,,Scattered Clouds,330,2013-03-07 09:55:00
5:15 AM,39.2,32.0,75,29.98,10.0,NNW,9.2,19.6,N/A,,Mostly Cloudy,330,2013-03-07 10:15:00
5:35 AM,38.8,32.0,76,29.99,10.0,NNW,8.1,-,N/A,,Overcast,330,2013-03-07 10:35:00
5:55 AM,38.3,32.0,78,29.99,10.0,NNW,11.5,17.3,N/A,,Mostly Cloudy,340,2013-03-07 10:55:00
6:15 AM,37.8,31.8,79,30.00,10.0,NNW,9.2,-,N/A,,Scattered Clouds,330,2013-03-07 11:15:00
6:35 AM,37.8,31.8,79,30.02,10.0,NNW,10.4,16.1,N/A,,Clear,330,2013-03-07 11:35:00
6:55 AM,38.1,32.0,79,30.02,10.0,NNW,10.4,-,N/A,,Scattered Clouds,340,2013-03-07 11:55:00
7:15 AM,39.2,32.0,75,30.03,10.0,NNW,11.5,16.1,N/A,,Mostly Cloudy,330,2013-03-07 12:15:00
7:35 AM,39.2,32.0,75,30.04,10.0,NNW,9.2,16.1,N/A,,Mostly Cloudy,330,2013-03-07 12:35:00
7:55 AM,40.3,32.0,72,30.05,10.0,NNW,11.5,-,N/A,,Clear,340,2013-03-07 12:55:00
8:15 AM,41.9,32.2,68,30.05,10.0,North,13.8,17.3,N/A,,Clear,350,2013-03-07 13:15:00
8:35 AM,43.0,32.2,66,30.06,10.0,North,13.8,19.6,N/A,,Clear,350,2013-03-07 13:35:00
8:55 AM,44.2,32.2,63,30.06,10.0,North,16.1,25.3,N/A,,Clear,350,2013-03-07 13:55:00
9:15 AM,45.0,31.6,60,30.07,10.0,NNW,21.9,25.3,N/A,,Clear,340,2013-03-07 14:15:00
9:35 AM,45.7,31.5,58,30.07,10.0,NNW,24.2,29.9,N/A,,Clear,340,2013-03-07 14:35:00
9:55 AM,46.2,31.3,56,30.08,10.0,North,21.9,31.1,N/A,,Clear,350,2013-03-07 14:55:00
10:15 AM,46.9,31.5,55,30.08,10.0,North,19.6,28.8,N/A,,Clear,350,2013-03-07 15:15:00
10:35 AM,47.5,31.3,53,30.08,10.0,North,16.1,27.6,N/A,,Clear,350,2013-03-07 15:35:00
10:55 AM,48.6,31.8,52,30.08,10.0,NNW,18.4,27.6,N/A,,Clear,330,2013-03-07 15:55:00
11:15 AM,49.3,31.6,51,30.07,10.0,North,21.9,28.8,N/A,,Clear,350,2013-03-07 16:15:00
11:35 AM,49.3,30.4,48,30.08,10.0,NNW,15.0,31.1,N/A,,Clear,330,2013-03-07 16:35:00
11:55 AM,50.2,30.7,47,30.07,10.0,NNW,17.3,25.3,N/A,,Clear,330,2013-03-07 16:55:00
12:15 PM,51.3,31.3,46,30.07,10.0,North,23.0,26.5,N/A,,Clear,350,2013-03-07 17:15:00
12:35 PM,51.1,30.9,46,30.05,10.0,North,18.4,27.6,N/A,,Clear,350,2013-03-07 17:35:00
12:55 PM,51.8,30.9,45,30.05,10.0,NNW,13.8,26.5,N/A,,Clear,340,2013-03-07 17:55:00
1:15 PM,52.5,32.0,46,30.04,10.0,NNW,15.0,25.3,N/A,,Scattered Clouds,340,2013-03-07 18:15:00
1:35 PM,52.2,30.6,44,30.03,10.0,North,23.0,28.8,N/A,,Scattered Clouds,350,2013-03-07 18:35:00
1:55 PM,53.2,30.9,43,30.03,10.0,NNW,18.4,23.0,N/A,,Scattered Clouds,330,2013-03-07 18:55:00
2:15 PM,52.7,31.5,44,30.04,10.0,North,18.4,21.9,N/A,,Scattered Clouds,350,2013-03-07 19:15:00
2:35 PM,52.9,29.8,41,30.04,10.0,NNW,12.7,28.8,N/A,,Scattered Clouds,330,2013-03-07 19:35:00
2:55 PM,51.8,30.0,43,30.04,10.0,North,19.6,25.3,N/A,,Scattered Clouds,350,2013-03-07 19:55:00
3:15 PM,52.2,30.2,43,30.04,10.0,NW,15.0,23.0,N/A,,Mostly Cloudy,310,2013-03-07 20:15:00
3:35 PM,51.6,30.2,44,30.05,10.0,NW,13.8,23.0,N/A,,Scattered Clouds,320,2013-03-07 20:35:00
3:55 PM,52.0,30.6,44,30.05,10.0,NW,9.2,21.9,N/A,,Scattered Clouds,320,2013-03-07 20:55:00
4:15 PM,51.8,31.6,46,30.05,10.0,NW,16.1,21.9,N/A,,Mostly Cloudy,310,2013-03-07 21:15:00
4:35 PM,51.4,31.3,46,30.06,10.0,NW,16.1,26.5,N/A,,Mostly Cloudy,310,2013-03-07 21:35:00
4:55 PM,50.5,31.1,47,30.07,10.0,NW,13.8,24.2,N/A,,Scattered Clouds,320,2013-03-07 21:55:00
5:15 PM,49.5,30.7,49,30.07,10.0,NW,12.7,19.6,N/A,,Mostly Cloudy,320,2013-03-07 22:15:00
5:35 PM,48.7,30.9,50,30.08,10.0,NW,12.7,23.0,N/A,,Mostly Cloudy,310,2013-03-07 22:35:00
5:55 PM,48.4,31.1,51,30.10,10.0,NW,9.2,17.3,N/A,,Overcast,320,2013-03-07 22:55:00
6:15 PM,47.8,30.4,51,30.10,10.0,NW,11.5,18.4,N/A,,Overcast,320,2013-03-07 23:15:00
6:35 PM,46.6,30.6,54,30.11,10.0,NW,11.5,19.6,N/A,,Scattered Clouds,320,2013-03-07 23:35:00
6:55 PM,46.4,30.2,53,30.12,10.0,NW,9.2,-,N/A,,Mostly Cloudy,320,2013-03-07 23:55:00
8:35 PM,43.9,29.8,58,30.15,10.0,NNW,9.2,-,N/A,,Clear,330,2013-03-08 01:35:00
8:55 PM,43.2,29.3,58,30.15,10.0,NNW,8.1,-,N/A,,Clear,330,2013-03-08 01:55:00
9:15 PM,43.0,28.4,56,30.15,10.0,NNW,8.1,-,N/A,,Clear,330,2013-03-08 02:15:00
9:35 PM,42.6,28.0,56,30.15,10.0,NNW,9.2,-,N/A,,Clear,330,2013-03-08 02:35:00
9:55 PM,42.3,27.7,56,30.15,10.0,NW,8.1,-,N/A,,Clear,320,2013-03-08 02:55:00
10:15 PM,42.1,27.5,56,30.15,10.0,NW,8.1,-,N/A,,Clear,320,2013-03-08 03:15:00
10:35 PM,41.5,28.4,60,30.15,10.0,NW,9.2,-,N/A,,Clear,310,2013-03-08 03:35:00
10:55 PM,41.5,28.9,61,30.15,10.0,NW,10.4,-,N/A,,Clear,320,2013-03-08 03:55:00
11:15 PM,40.8,28.4,61,30.15,10.0,NNW,10.4,-,N/A,,Clear,330,2013-03-08 04:15:00
11:35 PM,40.6,28.2,61,30.15,10.0,NW,6.9,-,N/A,,Clear,320,2013-03-08 04:35:00
11:55 PM,40.5,28.0,61,30.15,10.0,NW,8.1,-,N/A,,Scattered Clouds,320,2013-03-08 04:55:00